COSMOS 1275 DEB, 14740

Orbit data source: Space-Track

COSMOS 1275 DEB, 14740 is space debris in LEO originally from a launch on Thu, 04 Jun 1981 UTC launched from the Plesetsk Missile And Space Complex (PKMTR). Debris objects in space refer to the collection of defunct objects orbiting the Earth. Examples of debris include non-operational satellites, rocket bodies, and fragments generated from explosions, collisions, or faulty payload assembly.

Loading next visibility...
Identifier
14740, 1981-053JV
Orbit
LEO
Country
Flag of CISCIS
Related business
Manufacturer
Unknown
Mission
Spacecraft
Bus & Motor
Unknown
Mass
Unknown
Launch date (UTC)
1981-06-04 (45 years ago)
Launch vehicle
Unknown
Launch site
Plesetsk Missile And Space Complex (PKMTR)
Object type
Payload
Rocket body
Debris
Shape & HBR
Unknown shape, 0.1 m
Radar Cross Section
Small (<0.1 m²)

Expand to show TLE details & history
Last TLE update: 5 hours ago

TLE from 5 hours ago
0 COSMOS 1275 DEB
1 14740U 81053JV  26034.27657130  .00001400  00000-0  11341-2 0  9996
2 14740  83.1306  79.0292 0101456  64.0462  54.9617 13.87068928 99346
Epoch: 2026-02-03T06:38Z
TLE epoch observation values (Epoch: 2026-02-03T06:38:15.760Z)
Latitude
59.4225°
Longitude
14.30188°
Altitude
906.891 km
Speed
7.426 km/s
True Right ascension
16h 29m 18s
True Declination
59° 16' 29"
Sunlit
Object was in daylight at epoch
Visualization orbit readout
Latitude
Unknown
Longitude
Unknown
Altitude
Unknown
Speed
Unknown
Apparent Right ascension
Unknown
Apparent Declination
Unknown
Sunlit
N/A
Visualization observer readout
Local Sidereal Time
13:41:53
Azimuth
Unknown
Elevation
Unknown
Doppler factor
Unknown
Orbital elements
Apogee altitude
1,010.252 km
Perigee altitude
861.838 km
Semi-major axis
7,314.182 km
Eccentricity
0.01015
Inclination
83.1306°
RAAN
79.0292°
Arg. of periapsis
64.0462°
True anomaly
55.92054°
Mean anomaly
54.9617°
Eccentric anomaly
55.44042°
Mean motion
3.46972 °/min
Orbital period
103.75 mins
BSTAR
0.0011341
Loading maneuver chart data...
Computing Atmospheric mass density...

Documentation

Showing up to 5 results
|